Location: Newark
(41.1192°N, 81.5292°W)
Time: 10:52:07
(UTC+00:00)

N. Korean satellite - Pass Details

Date: 22 November 2019
Orbit: 456 x 506 km, 97.2° (Epoch: 09 December)

Event Time Altitude Azimuth Distance (km) Brightness Sun altitude
Rises 23:17:34 0° 198° (SSW) 2,562 10.7 -14.1°
Reaches altitude 10° 23:19:59 10° 215° (SW) 1,694 10.0 -14.5°
Maximum altitude 23:22:50 21° 266° (W) 1,161 9.5 -15.1°
Drops below altitude 10° 23:25:43 10° 317° (NW) 1,720 9.7 -15.6°
Sets 23:28:12 0° 334° (NNW) 2,615 10.5 -16.0°
